Simultaneous Nadir Overpasses (SNOs) Predictions

Prediction of SNOs between NPP and TERRA Satellite Orbit:

Table of predicted SNOs for the next 14.0 days since TLE Epoch: 9/5/2015
Index Date (NPP) Time (NPP) Lat,Lon (NPP) SZA (NPP ) Date (TERRA) Time (TERRA) Lat,Lon (TERRA) SZA (TERRA ) Distance(km) Time Diff (sec)
1 09/05/2015 09:01:20 68.73, 43.78 61.75 09/05/2015 09:02:09 68.73, 43.73 61.75 2.04 49
2 09/05/2015 09:52:01 -68.61,-148.73 118.37 09/05/2015 09:51:39 -68.62,-148.78 118.36 2.00 22
3 09/05/2015 10:42:28 67.56, 19.90 60.60 09/05/2015 10:41:22 67.61, 17.68 60.66 94.06 66
4 09/08/2015 00:27:45 -69.82, -9.28 116.16 09/08/2015 00:28:51 -69.72, -6.73 116.28 98.88 66
5 09/08/2015 01:18:11 68.73, 159.55 62.75 09/08/2015 01:18:34 68.73, 159.62 62.74 2.80 23
6 09/08/2015 02:08:51 -68.55, -32.89 117.42 09/08/2015 02:08:05 -68.56, -32.95 117.42 2.72 46
7 09/10/2015 16:44:20 -68.92, 107.77 116.07 09/10/2015 16:45:32 -68.88, 108.06 116.11 12.68 72
8 09/10/2015 17:35:01 68.64, -84.54 63.66 09/10/2015 17:35:01 68.66, -84.58 63.68 2.77 0
9 09/10/2015 18:25:43 -68.56, 82.88 116.40 09/10/2015 18:24:31 -68.55, 82.92 116.42 2.34 72
10 09/13/2015 09:01:08 -68.72,-136.18 115.25 09/13/2015 09:02:00 -68.75,-136.21 115.23 3.20 52
11 09/13/2015 09:51:53 68.65, 31.22 64.69 09/13/2015 09:51:27 68.63, 31.29 64.67 3.14 26
12 09/13/2015 10:42:19 -67.71,-160.27 116.23 09/13/2015 10:41:11 -67.74,-162.13 116.20 78.64 68
13 09/16/2015 00:27:35 69.72, 170.88
